Flight Track Log - Related Links

Times and Time Zones

All times are in EDT time to prevent confusion due to time zone crossing. See the SWA34 flight status page for this flight to view local times or setup timezone preferences in your user account.

Time Position Orientation Groundspeed Altitude Reporting Facility
EDT Latitude Longitude Course Direction KTS MPH feet Rate Location/Type
Fri 08:43:29 PM 38.7333 -90.3000 99° East 173 199 2,200  Level Gateway (St. Louis) TRACON
Fri 08:44:29 PM 38.7272 -90.2481 99° East 200 230 3,700 2,488 Climbing Kansas City Center
Fri 08:45:32 PM 38.7333 -90.1347 86° East 249 287 7,300 2,952 Climbing Kansas City Center
Fri 08:46:33 PM 38.7428 -90.0342 83° East 278 320 9,800 2,390 Climbing Kansas City Center
Fri 08:47:35 PM 38.7544 -89.9156 83° East 323 372 12,200 2,459 Climbing Kansas City Center
Fri 08:48:35 PM 38.7658 -89.7914 83° East 345 397 14,800 2,380 Climbing Kansas City Center
Fri 08:49:36 PM 38.7792 -89.6508 83° East 364 419 17,000 1,872 Climbing Kansas City Center
Fri 08:50:40 PM 38.7917 -89.5131 83° East 388 447 18,700 1,645 Climbing Kansas City Center
Fri 08:51:40 PM 38.8119 -89.3558 81° East 412 474 20,400 1,967 Climbing Kansas City Center
Fri 08:52:42 PM 38.8311 -89.2031 81° East 431 496 22,700 1,869 Climbing Kansas City Center
Fri 08:53:42 PM 38.8514 -89.0514 80° East 433 498 24,200 1,426 Climbing Kansas City Center
Fri 08:54:44 PM 38.8744 -88.8817 80° East 458 527 25,600 1,392 Climbing Kansas City Center
Fri 08:55:47 PM 38.8956 -88.7178 81° East 466 536 27,100 1,344 Climbing Kansas City Center
Fri 08:56:49 PM 38.9150 -88.5542 81° East 473 544 28,400 1,171 Climbing Kansas City Center
Fri 08:57:50 PM 38.9478 -88.3869 76° East 476 548 29,500 1,122 Climbing Kansas City Center
Fri 08:58:52 PM 39.0019 -88.2231 67° East 488 562 30,700 1,190 Climbing Kansas City Center
Fri 08:59:46 PM 39.0544 -88.0617 67° East 497 572 31,800 1,304 Climbing Indianapolis Center
Fri 09:00:47 PM 39.1089 -87.8975 67° East 495 570 33,200 1,180 Climbing Indianapolis Center
Fri 09:01:48 PM 39.1631 -87.7339 67° East 495 570 34,200 878 Climbing Indianapolis Center
Fri 09:02:50 PM 39.2192 -87.5586 68° East 500 575 35,000 390 Climbing Indianapolis Center
Fri 09:03:51 PM 39.2742 -87.3919 67° East 502 578 35,000  Level Indianapolis Center
Fri 09:04:52 PM 39.3289 -87.2228 67° East 506 582 35,000  Level Indianapolis Center
Fri 09:05:54 PM 39.3822 -87.0556 68° East 503 579 35,000  Level Indianapolis Center
Fri 09:06:55 PM 39.4350 -86.8864 68° East 505 581 35,000  Level Indianapolis Center
Fri 09:07:56 PM 39.4981 -86.6889 67° East 506 582 35,000  Level Indianapolis Center
Fri 09:08:58 PM 39.5506 -86.5194 68° East 508 585 35,000  Level Indianapolis Center
Fri 09:09:59 PM 39.6031 -86.3511 68° East 508 585 35,000  Level Indianapolis Center
Fri 09:11:00 PM 39.6533 -86.1833 69° East 510 587 35,000  Level Indianapolis Center
Fri 09:12:01 PM 39.7069 -86.0158 67° East 510 587 35,000  Level Indianapolis Center
Fri 09:13:03 PM 39.7589 -85.8442 68° East 511 588 35,000 -98 Level Indianapolis Center
Fri 09:14:04 PM 39.8117 -85.6722 68° East 510 587 34,800 -590 Descending Indianapolis Center
Fri 09:15:05 PM 39.8639 -85.4981 69° East 513 590 33,800 -984 Descending Indianapolis Center
Fri 09:16:06 PM 39.9261 -85.2944 68° East 517 595 32,800 -1,024 Descending Indianapolis Center
Fri 09:17:08 PM 39.9769 -85.1217 69° East 510 587 31,700 -976 Descending Indianapolis Center
Fri 09:18:09 PM 40.0278 -84.9475 69° East 511 588 30,800 -885 Descending Indianapolis Center
Fri 09:19:10 PM 40.0750 -84.7900 69° East 506 582 29,900 -1,317 Descending Indianapolis Center
Fri 09:20:12 PM 40.1128 -84.6092 75° East 510 587 28,100 -2,000 Descending Indianapolis Center
Fri 09:21:13 PM 40.1478 -84.4314 76° East 498 573 25,800 -2,262 Descending Indianapolis Center
Fri 09:22:14 PM 40.1778 -84.2633 77° East 471 542 23,500 -2,262 Descending Indianapolis Center
Fri 09:23:15 PM 40.2061 -84.1053 77° East 445 512 21,200 -2,341 Descending Indianapolis Center
Fri 09:24:17 PM 40.2347 -83.9525 76° East 428 493 18,700 -2,390 Descending Indianapolis Center
Fri 09:25:18 PM 40.2667 -83.7819 76° East 408 470 16,300 -2,508 Descending Indianapolis Center
Fri 09:26:19 PM 40.2914 -83.6383 77° East 400 460 13,600 -2,656 Descending Indianapolis Center
Fri 09:27:20 PM 40.2636 -83.5094 106° East 373 429 10,900 -1,750 Descending Indianapolis Center
Fri 09:28:19 PM 40.2083 -83.4117 126° Southeast 327 376 10,100 -1,171 Descending Indianapolis Center
Fri 09:29:23 PM 40.1575 -83.3167 125° Southeast 299 344 8,500 -1,488 Descending Indianapolis Center
Fri 09:30:24 PM 40.1125 -83.2317 125° Southeast 284 327 7,000 -927 Descending Indianapolis Center
Fri 09:31:26 PM 40.0736 -83.1614 126° Southeast 245 282 6,600 -814 Descending Indianapolis Center
Fri 09:32:22 PM 40.0436 -83.1056 125° Southeast 200 230 5,400 -1,282 Descending Indianapolis Center
Fri 09:33:23 PM 40.0103 -83.0717 142° Southeast 137 158 4,100 -1,426 Descending Indianapolis Center
Fri 09:34:24 PM 40.0011 -83.0217 103° East 153 176 2,500 -1,172 Descending Indianapolis Center
Fri 09:35:31 PM 39.9989 -82.9642 93° East 148 170 1,600 -703 Descending Indianapolis Center
Fri 09:36:32 PM 39.9961 -82.9222 95° East 145 167 1,000 -590 Descending Indianapolis Center
Fri 09:38:00 PM 39.9980 -82.8920 112° Southeast  Level Estimated
Fri 09:45:00 PM 39.9980 -82.8920 112° Southeast  Level Estimated

Login

Don't have an account? Register now (free) for customized features, flight alerts, and more!